COSMOS 886 DEB, 9722

Orbit data source: Space-Track

COSMOS 886 DEB, 9722 is space debris in LEO originally from a launch on Mon, 27 Dec 1976 UTC launched from the Tyuratam Missile And Space Complex (TTMTR). Debris objects in space refer to the collection of defunct objects orbiting the Earth. Examples of debris include non-operational satellites, rocket bodies, and fragments generated from explosions, collisions, or faulty payload assembly.

Loading next visibility...
Identifier
9722, 1976-126T
Orbit
LEO
Country
Flag of CISCIS
Related business
Manufacturer
Unknown
Mission
Spacecraft
Bus & Motor
Unknown
Mass
Unknown
Launch date (UTC)
1976-12-27 (49 years ago)
Launch vehicle
Unknown
Launch site
Tyuratam Missile And Space Complex (TTMTR)
Object type
Payload
Rocket body
Debris
Shape & HBR
Unknown shape, 0.1 m
Radar Cross Section
Small (<0.1 m²)

Expand to show TLE details & history
Last TLE update: 11 hours ago

TLE from 11 hours ago
0 COSMOS 886 DEB
1  9722U 76126T   26130.14405260  .00001404  00000-0  28511-2 0  9994
2  9722  65.7548  87.7023 0779553  55.5019 311.7117 12.55192442232200
Epoch: 2026-05-10T03:27Z
TLE epoch observation values (Epoch: 2026-05-10T03:27:26.144Z)
Latitude
0.00005°
Longitude
167.89203°
Altitude
1,067.619 km
Speed
7.493 km/s
True Right ascension
05h 50m 48s
True Declination
0° 00' 00"
Sunlit
Object was in daylight at epoch
Visualization orbit readout
Latitude
Unknown
Longitude
Unknown
Altitude
Unknown
Speed
Unknown
Apparent Right ascension
Unknown
Apparent Declination
Unknown
Sunlit
N/A
Visualization observer readout
Local Sidereal Time
22:46:29
Azimuth
Unknown
Elevation
Unknown
Doppler factor
Unknown
Orbital elements
Apogee altitude
2,051.031 km
Perigee altitude
831.874 km
Semi-major axis
7,819.589 km
Eccentricity
0.07796
Inclination
65.7548°
RAAN
87.7023°
Arg. of periapsis
55.5019°
True anomaly
304.60067°
Mean anomaly
311.7117°
Eccentric anomaly
308.20175°
Mean motion
3.13883 °/min
Orbital period
114.69 mins
BSTAR
0.0028511
Loading maneuver chart data...
Computing Atmospheric mass density...
Loading historical data...
Loading historical data...
Loading historical data...
Loading historical data...
Loading historical data...
Loading historical data...
Loading historical data...

Documentation

Showing up to 5 results
|